| time (UTC) | temp F | wind direction | speed MPH | gust MPH | rain 1hr in | rain 24hr in | rain mn in | humidity % | barometer mb |
| 20260904215817 | 72 | 214 | 0.0 | 2.0 | 0.00 | 0.00 | 0.00 | 74 | 1019.5 |
| 20260904215316 | 72 | 214 | 0.0 | 2.0 | 0.00 | 0.00 | 0.00 | 75 | 1019.5 |
| 20260904214816 | 72 | 213 | 1.0 | 2.0 | 0.00 | 0.00 | 0.00 | 74 | 1019.5 |
| 20260904214316 | 73 | 213 | 1.0 | 2.0 | 0.00 | 0.00 | 0.00 | 75 | 1019.5 |
| 20260904213316 | 73 | 343 | 1.0 | 2.0 | 0.00 | 0.00 | 0.00 | 74 | 1019.5 |
| 20260904212816 | 73 | 357 | 2.0 | 3.0 | 0.00 | 0.00 | 0.00 | 74 | 1019.5 |
| 20260904212316 | 74 | 359 | 2.0 | 3.0 | 0.00 | 0.00 | 0.00 | 74 | 1019.5 |
| 20260904211816 | 74 | 359 | 2.0 | 3.0 | 0.00 | 0.00 | 0.00 | 73 | 1019.5 |
| 20260904211316 | 74 | 338 | 1.0 | 3.0 | 0.00 | 0.00 | 0.00 | 73 | 1019.6 |
| 20260904210816 | 74 | 26 | 2.0 | 2.0 | 0.00 | 0.00 | 0.00 | 72 | 1019.6 |
| 20260904205816 | 74 | 26 | 2.0 | 2.0 | 0.00 | 0.00 | 0.00 | 70 | 1019.7 |
| 20260904205317 | 74 | 26 | 2.0 | 3.0 | 0.00 | 0.00 | 0.00 | 70 | 1019.7 |
| 20260904204816 | 74 | 26 | 2.0 | 3.0 | 0.00 | 0.00 | 0.00 | 71 | 1019.7 |
| 20260904204316 | 74 | 16 | 1.0 | 3.0 | 0.00 | 0.00 | 0.00 | 69 | 1019.7 |
| 20260904203816 | 74 | 14 | 1.0 | 3.0 | 0.00 | 0.00 | 0.00 | 71 | 1019.7 |
| 20260904202817 | 75 | 6 | 2.0 | 2.0 | 0.00 | 0.00 | 0.00 | 71 | 1019.7 |
| 20260904202316 | 75 | 6 | 2.0 | 5.0 | 0.00 | 0.00 | 0.00 | 70 | 1019.7 |
| 20260904201816 | 75 | 6 | 2.0 | 7.0 | 0.00 | 0.00 | 0.00 | 70 | 1019.7 |
| 20260904201316 | 75 | 353 | 2.0 | 7.0 | 0.00 | 0.00 | 0.00 | 69 | 1019.7 |
| 20260904200817 | 75 | 21 | 2.0 | 7.0 | 0.00 | 0.00 | 0.00 | 69 | 1019.7 |
| 20260904195754 | 75 | 45 | 2.0 | 5.0 | 0.00 | 0.00 | 0.00 | 69 | 1019.6 |
| 20260904195254 | 75 | 61 | 2.0 | 7.0 | 0.00 | 0.00 | 0.00 | 68 | 1019.6 |
| 20260904194754 | 76 | 40 | 2.0 | 7.0 | 0.00 | 0.00 | 0.00 | 67 | 1019.6 |
| 20260904194255 | 76 | 23 | 2.0 | 7.0 | 0.00 | 0.00 | 0.00 | 67 | 1019.7 |
| 20260904193755 | 76 | 27 | 3.0 | 6.0 | 0.00 | 0.00 | 0.00 | 68 | 1019.7 |
| 20260904193255 | 76 | 16 | 3.0 | 8.0 | 0.00 | 0.00 | 0.00 | 68 | 1019.7 |
| 20260904192755 | 76 | 26 | 3.0 | 8.0 | 0.00 | 0.00 | 0.00 | 68 | 1019.7 |
| 20260904192255 | 76 | 23 | 3.0 | 8.0 | 0.00 | 0.00 | 0.00 | 67 | 1019.7 |
| 20260904191756 | 76 | 18 | 3.0 | 8.0 | 0.00 | 0.00 | 0.00 | 66 | 1019.7 |
| 20260904190755 | 77 | 65 | 3.0 | 7.0 | 0.00 | 0.00 | 0.00 | 64 | 1019.6 |
| 20260904190255 | 78 | 299 | 3.0 | 7.0 | 0.00 | 0.00 | 0.00 | 63 | 1019.6 |
| 20260904185755 | 78 | 304 | 3.0 | 9.0 | 0.00 | 0.00 | 0.00 | 66 | 1019.5 |
| 20260904185256 | 78 | 75 | 2.0 | 9.0 | 0.00 | 0.00 | 0.00 | 65 | 1019.5 |
| 20260904184755 | 78 | 8 | 3.0 | 9.0 | 0.00 | 0.00 | 0.00 | 65 | 1019.5 |
| 20260904184255 | 78 | 77 | 3.0 | 6.0 | 0.00 | 0.00 | 0.00 | 64 | 1019.3 |
| 20260904183756 | 78 | 53 | 3.0 | 7.0 | 0.00 | 0.00 | 0.00 | 64 | 1019.3 |
| 20260904182755 | 78 | 56 | 2.0 | 8.0 | 0.00 | 0.00 | 0.00 | 64 | 1019.2 |
| 20260904182255 | 78 | 312 | 2.0 | 6.0 | 0.00 | 0.00 | 0.00 | 64 | 1019.2 |
| 20260904181755 | 79 | 49 | 2.0 | 6.0 | 0.00 | 0.00 | 0.00 | 63 | 1019.2 |
| 20260904181256 | 79 | 66 | 2.0 | 6.0 | 0.00 | 0.00 | 0.00 | 62 | 1019.0 |
| 20260904180755 | 79 | 18 | 2.0 | 6.0 | 0.00 | 0.00 | 0.00 | 61 | 1019.0 |
| 20260904180255 | 80 | 59 | 2.0 | 6.0 | 0.00 | 0.00 | 0.00 | 61 | 1019.0 |
| 20260904175755 | 80 | 2 | 3.0 | 6.0 | 0.00 | 0.00 | 0.00 | 60 | 1018.9 |
| 20260904175255 | 80 | 5 | 3.0 | 6.0 | 0.00 | 0.00 | 0.00 | 59 | 1018.9 |
| 20260904174756 | 80 | 359 | 3.0 | 7.0 | 0.00 | 0.00 | 0.00 | 59 | 1018.9 |
| 20260904174255 | 80 | 3 | 2.0 | 7.0 | 0.00 | 0.00 | 0.00 | 58 | 1019.0 |
| 20260904173756 | 80 | 359 | 2.0 | 5.0 | 0.00 | 0.00 | 0.00 | 58 | 1019.0 |
| 20260904172755 | 81 | 359 | 2.0 | 5.0 | 0.00 | 0.00 | 0.00 | 58 | 1019.0 |
| 20260904172255 | 81 | 54 | 2.0 | 3.0 | 0.00 | 0.00 | 0.00 | 57 | 1019.0 |
| 20260904171256 | 82 | 30 | 2.0 | 5.0 | 0.00 | 0.00 | 0.00 | 55 | 1019.1 |
| 20260904170755 | 83 | 31 | 2.0 | 5.0 | 0.00 | 0.00 | 0.00 | 56 | 1019.1 |
| 20260904170255 | 84 | 13 | 2.0 | 5.0 | 0.00 | 0.00 | 0.00 | 52 | 1019.1 |
| 20260904165755 | 85 | 354 | 2.0 | 3.0 | 0.00 | 0.00 | 0.00 | 53 | 1019.0 |
| 20260904165254 | 86 | 55 | 2.0 | 3.0 | 0.00 | 0.00 | 0.00 | 51 | 1019.0 |
| 20260904164755 | 87 | 12 | 2.0 | 5.0 | 0.00 | 0.00 | 0.00 | 48 | 1019.0 |
| 20260904164255 | 88 | 79 | 2.0 | 5.0 | 0.00 | 0.00 | 0.00 | 49 | 1019.1 |
| 20260904163756 | 88 | 180 | 2.0 | 5.0 | 0.00 | 0.00 | 0.00 | 49 | 1019.1 |
| 20260904162255 | 89 | 172 | 2.0 | 6.0 | 0.00 | 0.00 | 0.00 | 46 | 1019.0 |
| 20260904160755 | 89 | 8 | 3.0 | 6.0 | 0.00 | 0.00 | 0.00 | 44 | 1019.0 |
| 20260904160255 | 89 | 185 | 3.0 | 7.0 | 0.00 | 0.00 | 0.00 | 43 | 1019.0 |
| 20260904155755 | 89 | 156 | 3.0 | 8.0 | 0.00 | 0.00 | 0.00 | 43 | 1019.0 |
| 20260904155255 | 89 | 131 | 2.0 | 8.0 | 0.00 | 0.00 | 0.00 | 43 | 1019.0 |
| 20260904154755 | 89 | 272 | 2.0 | 7.0 | 0.00 | 0.00 | 0.00 | 43 | 1019.0 |
| 20260904154255 | 89 | 176 | 2.0 | 7.0 | 0.00 | 0.00 | 0.00 | 43 | 1019.2 |
| 20260904153756 | 89 | 194 | 2.0 | 7.0 | 0.00 | 0.00 | 0.00 | 44 | 1019.2 |
| 20260904153256 | 89 | 203 | 2.0 | 6.0 | 0.00 | 0.00 | 0.00 | 44 | 1019.2 |
| 20260904152755 | 89 | 105 | 3.0 | 6.0 | 0.00 | 0.00 | 0.00 | 43 | 1019.2 |
| 20260904152255 | 89 | 357 | 3.0 | 6.0 | 0.00 | 0.00 | 0.00 | 43 | 1019.2 |
| 20260904151755 | 89 | 237 | 3.0 | 8.0 | 0.00 | 0.00 | 0.00 | 44 | 1019.2 |
| 20260904151256 | 89 | 45 | 3.0 | 8.0 | 0.00 | 0.00 | 0.00 | 43 | 1019.3 |
| 20260904150756 | 89 | 234 | 3.0 | 8.0 | 0.00 | 0.00 | 0.00 | 43 | 1019.3 |
| 20260904150255 | 89 | 196 | 3.0 | 9.0 | 0.00 | 0.00 | 0.00 | 43 | 1019.3 |
| 20260904145256 | 89 | 356 | 3.0 | 10.0 | 0.00 | 0.00 | 0.00 | 44 | 1019.5 |
| 20260904144755 | 89 | 276 | 3.0 | 10.0 | 0.00 | 0.00 | 0.00 | 43 | 1019.5 |
| 20260904144256 | 89 | 35 | 3.0 | 8.0 | 0.00 | 0.00 | 0.00 | 44 | 1019.5 |
| 20260904143255 | 89 | 89 | 3.0 | 7.0 | 0.00 | 0.00 | 0.00 | 44 | 1019.5 |
| 20260904142255 | 89 | 36 | 3.0 | 7.0 | 0.00 | 0.00 | 0.00 | 46 | 1019.5 |
| 20260904141755 | 89 | 15 | 3.0 | 7.0 | 0.00 | 0.00 | 0.00 | 45 | 1019.5 |
| 20260904141257 | 89 | 69 | 3.0 | 10.0 | 0.00 | 0.00 | 0.00 | 45 | 1019.6 |
| 20260904140755 | 88 | 11 | 3.0 | 10.0 | 0.00 | 0.00 | 0.00 | 45 | 1019.6 |
| 20260904140255 | 88 | 191 | 3.0 | 8.0 | 0.00 | 0.00 | 0.00 | 45 | 1019.6 |
| 20260904135756 | 88 | 318 | 3.0 | 8.0 | 0.00 | 0.00 | 0.00 | 46 | 1019.8 |
| 20260904135255 | 88 | 200 | 3.0 | 13.0 | 0.00 | 0.00 | 0.00 | 46 | 1019.8 |
| 20260904133756 | 88 | 217 | 3.0 | 9.0 | 0.00 | 0.00 | 0.00 | 45 | 1020.0 |
| 20260904133256 | 88 | 351 | 3.0 | 9.0 | 0.00 | 0.00 | 0.00 | 45 | 1020.0 |
| 20260904132756 | 88 | 9 | 3.0 | 6.0 | 0.00 | 0.00 | 0.00 | 46 | 1020.0 |
| 20260904132255 | 88 | 20 | 2.0 | 7.0 | 0.00 | 0.00 | 0.00 | 45 | 1020.0 |
| 20260904131756 | 88 | 188 | 4.0 | 7.0 | 0.00 | 0.00 | 0.00 | 45 | 1020.0 |
| 20260904131255 | 88 | 304 | 5.0 | 9.0 | 0.00 | 0.00 | 0.00 | 45 | 1020.1 |
| 20260904130756 | 88 | 289 | 3.0 | 9.0 | 0.00 | 0.00 | 0.00 | 46 | 1020.1 |
| 20260904125755 | 88 | 235 | 3.0 | 8.0 | 0.00 | 0.00 | 0.00 | 45 | 1020.1 |
| 20260904125255 | 88 | 351 | 3.0 | 8.0 | 0.00 | 0.00 | 0.00 | 45 | 1020.1 |
| 20260904124757 | 88 | 140 | 3.0 | 7.0 | 0.00 | 0.00 | 0.00 | 46 | 1020.1 |
| 20260904124256 | 88 | 23 | 2.0 | 7.0 | 0.00 | 0.00 | 0.00 | 45 | 1020.1 |
| 20260904123755 | 88 | 81 | 2.0 | 7.0 | 0.00 | 0.00 | 0.00 | 46 | 1020.1 |
| 20260904122755 | 87 | 70 | 3.0 | 7.0 | 0.00 | 0.00 | 0.00 | 47 | 1020.1 |
| 20260904122255 | 87 | 16 | 3.0 | 9.0 | 0.00 | 0.00 | 0.00 | 47 | 1020.1 |
| 20260904121755 | 87 | 237 | 3.0 | 9.0 | 0.00 | 0.00 | 0.00 | 46 | 1020.1 |
| 20260904121256 | 87 | 80 | 2.0 | 7.0 | 0.00 | 0.00 | 0.00 | 48 | 1020.3 |
| 20260904120756 | 86 | 287 | 2.0 | 7.0 | 0.00 | 0.00 | 0.00 | 48 | 1020.3 |
| 20260904120255 | 86 | 5 | 2.0 | 7.0 | 0.00 | 0.00 | 0.00 | 48 | 1020.3 |
| 20260904115755 | 85 | 3 | 2.0 | 7.0 | 0.00 | 0.00 | 0.00 | 50 | 1020.5 |
| 20260904115256 | 85 | 118 | 2.0 | 5.0 | 0.00 | 0.00 | 0.00 | 50 | 1020.5 |
| 20260904114755 | 84 | 232 | 2.0 | 5.0 | 0.00 | 0.00 | 0.00 | 51 | 1020.5 |
| 20260904113756 | 83 | 259 | 3.0 | 7.0 | 0.00 | 0.00 | 0.00 | 53 | 1020.6 |
| 20260904113256 | 83 | 241 | 3.0 | 7.0 | 0.00 | 0.00 | 0.00 | 54 | 1020.6 |
| 20260904112755 | 82 | 260 | 3.0 | 8.0 | 0.00 | 0.00 | 0.00 | 55 | 1020.7 |
| 20260904112255 | 82 | 308 | 3.0 | 8.0 | 0.00 | 0.00 | 0.00 | 54 | 1020.7 |
| 20260904111756 | 82 | 278 | 3.0 | 8.0 | 0.00 | 0.00 | 0.00 | 53 | 1020.7 |
| 20260904111256 | 81 | 237 | 3.0 | 8.0 | 0.00 | 0.00 | 0.00 | 54 | 1020.9 |
| 20260904110756 | 81 | 220 | 3.0 | 8.0 | 0.00 | 0.00 | 0.00 | 53 | 1020.9 |
| 20260904110256 | 81 | 258 | 3.0 | 7.0 | 0.00 | 0.00 | 0.00 | 54 | 1020.9 |
| 20260904105756 | 80 | 204 | 3.0 | 8.0 | 0.00 | 0.00 | 0.00 | 53 | 1021.1 |
| 20260904105256 | 80 | 186 | 3.0 | 8.0 | 0.00 | 0.00 | 0.00 | 52 | 1021.1 |
| 20260904104756 | 80 | 190 | 3.0 | 7.0 | 0.00 | 0.00 | 0.00 | 52 | 1021.1 |
| 20260904104256 | 80 | 243 | 2.0 | 6.0 | 0.00 | 0.00 | 0.00 | 54 | 1021.3 |
| 20260904103755 | 80 | 243 | 2.0 | 5.0 | 0.00 | 0.00 | 0.00 | 55 | 1021.3 |
| 20260904103255 | 79 | 183 | 2.0 | 6.0 | 0.00 | 0.00 | 0.00 | 56 | 1021.3 |
| 20260904102755 | 79 | 236 | 2.0 | 6.0 | 0.00 | 0.00 | 0.00 | 55 | 1021.5 |
| 20260904102255 | 79 | 184 | 2.0 | 6.0 | 0.00 | 0.00 | 0.00 | 55 | 1021.5 |
| 20260904101755 | 79 | 202 | 2.0 | 5.0 | 0.00 | 0.00 | 0.00 | 55 | 1021.5 |
| 20260904101255 | 79 | 192 | 2.0 | 5.0 | 0.00 | 0.00 | 0.00 | 56 | 1021.6 |
| 20260904100255 | 78 | 195 | 2.0 | 3.0 | 0.00 | 0.00 | 0.00 | 57 | 1021.6 |
| 20260904095755 | 78 | 194 | 2.0 | 5.0 | 0.00 | 0.00 | 0.00 | 58 | 1021.7 |
| 20260904095255 | 78 | 191 | 2.0 | 5.0 | 0.00 | 0.00 | 0.00 | 58 | 1021.7 |
| 20260904093755 | 77 | 234 | 2.0 | 3.0 | 0.00 | 0.00 | 0.00 | 59 | 1021.8 |
| 20260904093255 | 77 | 307 | 2.0 | 3.0 | 0.00 | 0.00 | 0.00 | 61 | 1021.8 |
| 20260904092255 | 76 | 22 | 2.0 | 3.0 | 0.00 | 0.00 | 0.00 | 63 | 1022.1 |
| 20260904091755 | 75 | 243 | 2.0 | 5.0 | 0.00 | 0.00 | 0.00 | 65 | 1022.1 |
| 20260904091255 | 75 | 11 | 1.0 | 5.0 | 0.00 | 0.00 | 0.00 | 65 | 1022.0 |
| 20260904090755 | 74 | 10 | 2.0 | 3.0 | 0.00 | 0.00 | 0.00 | 66 | 1022.0 |
| 20260904090255 | 73 | 7 | 2.0 | 5.0 | 0.00 | 0.00 | 0.00 | 68 | 1022.0 |
| 20260904085755 | 72 | 7 | 2.0 | 5.0 | 0.00 | 0.00 | 0.00 | 68 | 1022.2 |
| 20260904085255 | 71 | 13 | 1.0 | 5.0 | 0.00 | 0.00 | 0.00 | 70 | 1022.2 |
| 20260904084254 | 70 | 143 | 2.0 | 3.0 | 0.00 | 0.00 | 0.00 | 72 | 1022.3 |
| 20260904083755 | 70 | 354 | 2.0 | 5.0 | 0.00 | 0.00 | 0.00 | 72 | 1022.3 |
| 20260904082755 | 69 | 8 | 2.0 | 5.0 | 0.00 | 0.00 | 0.00 | 73 | 1022.4 |
| 20260904082255 | 69 | 46 | 1.0 | 5.0 | 0.00 | 0.00 | 0.00 | 74 | 1022.4 |
| 20260904081755 | 69 | 278 | 2.0 | 3.0 | 0.00 | 0.00 | 0.00 | 75 | 1022.4 |
| 20260904080755 | 68 | 329 | 2.0 | 3.0 | 0.00 | 0.00 | 0.00 | 77 | 1022.4 |
| 20260904080255 | 67 | 354 | 1.0 | 2.0 | 0.00 | 0.00 | 0.00 | 78 | 1022.4 |
| 20260904075755 | 67 | 353 | 1.0 | 2.0 | 0.00 | 0.00 | 0.00 | 79 | 1022.5 |
| 20260904075255 | 66 | 24 | 0.0 | 2.0 | 0.00 | 0.00 | 0.00 | 79 | 1022.5 |
| 20260904074756 | 66 | 111 | 0.0 | 2.0 | 0.00 | 0.00 | 0.00 | 81 | 1022.5 |
| 20260904074255 | 66 | 111 | 0.0 | 2.0 | 0.00 | 0.00 | 0.00 | 82 | 1022.5 |
| 20260904073755 | 65 | 111 | 0.0 | 2.0 | 0.00 | 0.00 | 0.00 | 83 | 1022.5 |
| 20260904072755 | 65 | 111 | 0.0 | 2.0 | 0.00 | 0.00 | 0.00 | 86 | 1022.7 |
| 20260904071755 | 64 | 111 | 0.0 | 2.0 | 0.00 | 0.00 | 0.00 | 87 | 1022.7 |
| 20260904071258 | 64 | 111 | 0.0 | 2.0 | 0.00 | 0.00 | 0.00 | 87 | 1022.6 |
| 20260904070755 | 64 | 111 | 1.0 | 2.0 | 0.00 | 0.00 | 0.00 | 87 | 1022.6 |
| 20260904070255 | 64 | 111 | 1.0 | 2.0 | 0.00 | 0.00 | 0.00 | 88 | 1022.6 |
| 20260904065755 | 63 | 111 | 1.0 | 2.0 | 0.00 | 0.00 | 0.00 | 88 | 1022.6 |
| 20260904065255 | 63 | 16 | 1.0 | 3.0 | 0.00 | 0.00 | 0.00 | 88 | 1022.6 |
| 20260904064755 | 63 | 1 | 1.0 | 3.0 | 0.00 | 0.00 | 0.00 | 89 | 1022.6 |
| 20260904063756 | 63 | 1 | 1.0 | 5.0 | 0.00 | 0.00 | 0.00 | 89 | 1022.6 |
| 20260904063255 | 63 | 261 | 0.0 | 5.0 | 0.00 | 0.00 | 0.00 | 89 | 1022.6 |
| 20260904062755 | 63 | 270 | 1.0 | 2.0 | 0.00 | 0.00 | 0.00 | 89 | 1022.5 |
| 20260904062255 | 63 | 270 | 1.0 | 3.0 | 0.00 | 0.00 | 0.00 | 89 | 1022.5 |
| 20260904061755 | 63 | 270 | 2.0 | 3.0 | 0.00 | 0.00 | 0.00 | 89 | 1022.5 |
| 20260904061255 | 63 | 289 | 2.0 | 3.0 | 0.00 | 0.00 | 0.00 | 89 | 1022.4 |
| 20260904060755 | 63 | 298 | 2.0 | 5.0 | 0.00 | 0.00 | 0.00 | 88 | 1022.4 |
| 20260904060255 | 63 | 298 | 2.0 | 5.0 | 0.00 | 0.00 | 0.00 | 88 | 1022.4 |
| 20260904055755 | 63 | 275 | 1.0 | 5.0 | 0.00 | 0.00 | 0.00 | 88 | 1022.5 |
| 20260904055256 | 63 | 19 | 0.0 | 5.0 | 0.00 | 0.00 | 0.00 | 88 | 1022.5 |
| 20260904054255 | 63 | 12 | 1.0 | 3.0 | 0.00 | 0.00 | 0.00 | 89 | 1022.4 |
| 20260904053755 | 63 | 12 | 1.0 | 3.0 | 0.00 | 0.00 | 0.00 | 88 | 1022.4 |
| 20260904053255 | 63 | 7 | 0.0 | 3.0 | 0.00 | 0.00 | 0.00 | 89 | 1022.4 |
| 20260904052755 | 63 | 7 | 1.0 | 1.0 | 0.00 | 0.00 | 0.00 | 89 | 1022.3 |
| 20260904052255 | 63 | 7 | 1.0 | 2.0 | 0.00 | 0.00 | 0.00 | 89 | 1022.3 |
| 20260904051755 | 63 | 7 | 2.0 | 5.0 | 0.00 | 0.00 | 0.00 | 88 | 1022.3 |
| 20260904051255 | 63 | 7 | 2.0 | 5.0 | 0.00 | 0.00 | 0.00 | 88 | 1022.2 |
| 20260904050755 | 63 | 1 | 1.0 | 5.0 | 0.00 | 0.00 | 0.00 | 88 | 1022.2 |
| 20260904050255 | 63 | 290 | 0.0 | 3.0 | 0.00 | 0.00 | 0.00 | 88 | 1022.2 |
| 20260904045755 | 63 | 312 | 1.0 | 3.0 | 0.00 | 0.00 | 0.00 | 88 | 1022.0 |
| 20260904045255 | 63 | 14 | 1.0 | 2.0 | 0.00 | 0.00 | 0.00 | 88 | 1022.0 |
| 20260904044756 | 63 | 15 | 1.0 | 3.0 | 0.00 | 0.00 | 0.00 | 88 | 1022.0 |
| 20260904044255 | 63 | 15 | 1.0 | 5.0 | 0.00 | 0.00 | 0.00 | 88 | 1022.2 |
| 20260904043755 | 63 | 334 | 1.0 | 5.0 | 0.00 | 0.00 | 0.00 | 88 | 1022.2 |
| 20260904043256 | 63 | 292 | 0.0 | 2.0 | 0.00 | 0.00 | 0.00 | 89 | 1022.2 |
| 20260904042755 | 63 | 291 | 0.0 | 2.0 | 0.00 | 0.00 | 0.00 | 88 | 1022.2 |
| 20260904042256 | 64 | 280 | 0.0 | 3.0 | 0.00 | 0.00 | 0.00 | 88 | 1022.2 |
| 20260904041756 | 64 | 280 | 1.0 | 3.0 | 0.00 | 0.00 | 0.00 | 88 | 1022.2 |
| 20260904041255 | 64 | 290 | 1.0 | 2.0 | 0.00 | 0.00 | 0.00 | 88 | 1022.1 |
| 20260904040756 | 64 | 290 | 1.0 | 2.0 | 0.00 | 0.00 | 0.00 | 88 | 1022.1 |
| 20260904040255 | 64 | 331 | 0.0 | 2.0 | 0.00 | 0.00 | 0.00 | 88 | 1022.1 |
| 20260904035755 | 64 | 336 | 1.0 | 2.0 | 0.00 | 0.00 | 0.00 | 88 | 1022.0 |
| 20260904035255 | 64 | 338 | 1.0 | 2.0 | 0.00 | 0.00 | 0.00 | 87 | 1022.0 |
| 20260904034255 | 64 | 291 | 1.0 | 3.0 | 0.00 | 0.00 | 0.00 | 88 | 1022.1 |
| 20260904033756 | 64 | 293 | 1.0 | 5.0 | 0.00 | 0.00 | 0.00 | 87 | 1022.1 |
| 20260904033255 | 64 | 293 | 1.0 | 5.0 | 0.00 | 0.00 | 0.00 | 87 | 1022.1 |
| 20260904032756 | 65 | 289 | 1.0 | 3.0 | 0.00 | 0.00 | 0.00 | 86 | 1021.9 |
| 20260904032255 | 65 | 293 | 0.0 | 2.0 | 0.00 | 0.00 | 0.00 | 86 | 1021.9 |
| 20260904031756 | 65 | 293 | 0.0 | 2.0 | 0.00 | 0.00 | 0.00 | 86 | 1021.9 |
| 20260904030755 | 65 | 293 | 0.0 | 2.0 | 0.00 | 0.00 | 0.00 | 86 | 1021.8 |
| 20260904025255 | 65 | 293 | 0.0 | 2.0 | 0.00 | 0.00 | 0.00 | 85 | 1022.0 |
| 20260904024756 | 65 | 293 | 1.0 | 2.0 | 0.00 | 0.00 | 0.00 | 85 | 1022.0 |
| 20260904024255 | 65 | 293 | 1.0 | 2.0 | 0.00 | 0.00 | 0.00 | 85 | 1022.0 |
| 20260904023755 | 66 | 293 | 2.0 | 3.0 | 0.00 | 0.00 | 0.00 | 85 | 1022.0 |
| 20260904023255 | 66 | 7 | 2.0 | 3.0 | 0.00 | 0.00 | 0.00 | 84 | 1022.0 |
| 20260904022755 | 66 | 30 | 2.0 | 5.0 | 0.00 | 0.00 | 0.00 | 84 | 1021.9 |
| 20260904021256 | 66 | 286 | 1.0 | 3.0 | 0.00 | 0.00 | 0.00 | 83 | 1021.9 |
| 20260904020255 | 66 | 61 | 1.0 | 2.0 | 0.00 | 0.00 | 0.00 | 83 | 1021.9 |
| 20260904015756 | 66 | 61 | 2.0 | 2.0 | 0.00 | 0.00 | 0.00 | 83 | 1022.0 |
| 20260904015255 | 67 | 61 | 2.0 | 3.0 | 0.00 | 0.00 | 0.00 | 82 | 1022.0 |
| 20260904014756 | 67 | 69 | 2.0 | 5.0 | 0.00 | 0.00 | 0.00 | 82 | 1022.0 |
| 20260904013756 | 67 | 356 | 1.0 | 3.0 | 0.00 | 0.00 | 0.00 | 82 | 1021.8 |
| 20260904013255 | 67 | 2 | 1.0 | 3.0 | 0.00 | 0.00 | 0.00 | 82 | 1021.8 |
| 20260904012756 | 67 | 6 | 1.0 | 3.0 | 0.00 | 0.00 | 0.00 | 82 | 1021.8 |
| 20260904012256 | 67 | 10 | 1.0 | 3.0 | 0.00 | 0.00 | 0.00 | 82 | 1021.8 |
| 20260904011756 | 67 | 14 | 1.0 | 3.0 | 0.00 | 0.00 | 0.00 | 81 | 1021.8 |
| 20260904011256 | 67 | 15 | 0.0 | 3.0 | 0.00 | 0.00 | 0.00 | 81 | 1021.9 |
| 20260904010756 | 67 | 345 | 0.0 | 2.0 | 0.00 | 0.00 | 0.00 | 80 | 1021.9 |
| 20260904010256 | 67 | 347 | 0.0 | 2.0 | 0.00 | 0.00 | 0.00 | 80 | 1021.9 |
| 20260904005755 | 68 | 347 | 1.0 | 3.0 | 0.00 | 0.00 | 0.00 | 80 | 1021.8 |
| 20260904005255 | 68 | 347 | 2.0 | 5.0 | 0.00 | 0.00 | 0.00 | 80 | 1021.8 |
| 20260904004756 | 68 | 346 | 1.0 | 5.0 | 0.00 | 0.00 | 0.00 | 80 | 1021.8 |
| 20260904004256 | 67 | 350 | 0.0 | 2.0 | 0.00 | 0.00 | 0.00 | 80 | 1021.9 |
| 20260904003756 | 68 | 350 | 0.0 | 2.0 | 0.00 | 0.00 | 0.00 | 80 | 1021.9 |
| 20260904002256 | 68 | 295 | 1.0 | 2.0 | 0.00 | 0.00 | 0.00 | 80 | 1021.8 |
| 20260904001756 | 68 | 295 | 2.0 | 5.0 | 0.00 | 0.00 | 0.00 | 79 | 1021.8 |
| 20260904001256 | 68 | 295 | 2.0 | 5.0 | 0.00 | 0.00 | 0.00 | 79 | 1021.8 |
| 20260904000755 | 69 | 353 | 2.0 | 5.0 | 0.00 | 0.00 | 0.00 | 78 | 1021.8 |
| 20260904000256 | 69 | 324 | 1.0 | 5.0 | 0.00 | 0.00 | 0.00 | 78 | 1021.8 |
| 20260903235256 | 70 | 336 | 2.0 | 3.0 | 0.00 | 0.00 | 0.00 | 77 | 1021.7 |
| 20260903234756 | 70 | 333 | 2.0 | 5.0 | 0.00 | 0.00 | 0.00 | 75 | 1021.7 |
| 20260903234256 | 69 | 333 | 2.0 | 5.0 | 0.00 | 0.00 | 0.00 | 75 | 1021.7 |
| 20260903233756 | 69 | 357 | 2.0 | 5.0 | 0.00 | 0.00 | 0.00 | 76 | 1021.7 |
| 20260903233255 | 69 | 356 | 2.0 | 3.0 | 0.00 | 0.00 | 0.00 | 76 | 1021.7 |
| 20260903232256 | 69 | 356 | 2.0 | 5.0 | 0.00 | 0.00 | 0.00 | 76 | 1021.8 |
| 20260903231256 | 69 | 285 | 1.0 | 3.0 | 0.00 | 0.00 | 0.00 | 76 | 1021.5 |
| 20260903230756 | 70 | 288 | 2.0 | 2.0 | 0.00 | 0.00 | 0.00 | 76 | 1021.5 |
| 20260903230256 | 70 | 288 | 2.0 | 3.0 | 0.00 | 0.00 | 0.00 | 75 | 1021.5 |
| 20260903224756 | 71 | 6 | 2.0 | 5.0 | 0.00 | 0.00 | 0.00 | 73 | 1021.6 |
| 20260903224256 | 70 | 355 | 1.0 | 5.0 | 0.00 | 0.00 | 0.00 | 73 | 1021.7 |
| 20260903223756 | 70 | 345 | 2.0 | 3.0 | 0.00 | 0.00 | 0.00 | 74 | 1021.7 |
| 20260903223257 | 71 | 348 | 2.0 | 2.0 | 0.00 | 0.00 | 0.00 | 74 | 1021.7 |
| 20260903222756 | 71 | 348 | 2.0 | 5.0 | 0.00 | 0.00 | 0.00 | 74 | 1021.8 |
| 20260903222256 | 71 | 348 | 1.0 | 5.0 | 0.00 | 0.00 | 0.00 | 74 | 1021.8 |
| 20260903221756 | 71 | 10 | 1.0 | 3.0 | 0.00 | 0.00 | 0.00 | 73 | 1021.8 |
| 20260903221256 | 71 | 297 | 0.0 | 3.0 | 0.00 | 0.00 | 0.00 | 73 | 1021.5 |
| 20260903220848 | 71 | 298 | 0.0 | 2.0 | 0.00 | 0.00 | 0.00 | 73 | 1021.5 |
| 20260903220256 | 71 | 299 | 0.0 | 2.0 | 0.00 | 0.00 | 0.00 | 73 | 1021.5 |